Orbital Elements at Epoch 2459200.5 (2020-Dec-17.0) TDB
Reference: JPL 15 (heliocentric ecliptic J2000)
Element | Value | Uncertainty (1-sigma) | Units |
e | .03716243585735182 | 4.7185e-08 | |
a | 2.793902562568556 | 1.4715e-08 | au |
q | 2.690074337795411 | 1.3023e-07 | au |
i | 3.430146772874267 | 4.416e-06 | deg |
node | 67.05002793920922 | 9.6443e-05 | deg |
peri | 343.6949534331968 | 0.00012884 | deg |
M | 56.04890777823437 | 8.4212e-05 | deg |
tp | 2458934.929418782559 (2020-Mar-26.42941878) | 0.00039881 | TDB |
period | 1705.749728728981 4.67 | 1.3476e-05 3.69e-08 | d yr |
n | .2110508909582239 | 1.6674e-09 | deg/d |
Q | 2.897730787341701 | 1.5262e-08 | au |
|
| | Orbit Determination Parameters
Additional Information
|